#timestamp,LO_Frequency,Hit,StdDev 
1526612415.8,286047000.0,N
1526612435.7,286047004.0,P
1526612455.5,286047002.4,N
1526612475.3,286047000.1,N
1526612495.2,286047003.1,N
1526612515.0,286047004.1,N
1526612515.9,286047004.1,N
1526612535.8,286047003.5,N
1526612555.6,286047005.1,N
1526612575.4,286047003.7,N
1526612595.3,286047004.0,N
1526612615.1,286047005.5,N
1526612635.9,286047006.6,Y
1526612655.7,286047004.4,P
1526612675.5,286047003.8,P
1526612695.4,286047005.0,P
1526612715.2,286047004.9,Y
1526612735.1,286047002.2,P
1526612736.0,286047002.2,N
1526612755.8,286047001.2,N
1526612775.6,286047004.4,Y
1526612795.5,286046999.9,P
1526612815.3,286046998.3,N
1526612835.1,286046996.6,N
1526612855.9,286046999.1,N
1526612875.7,286046995.1,N
1526612895.6,286046997.1,N
1526612915.4,286046997.4,N
1526612935.2,286046999.5,N
1526612955.1,286046998.0,N
1526612956.0,286046998.0,N
1526612975.8,286046997.4,N
1526612995.7,286046995.5,N
1526613015.5,286046995.7,N
1526613035.3,286046995.1,N
1526613055.2,286046996.8,N
1526613075.9,286046998.7,N
1526613095.7,286046996.5,N
1526613115.6,286047000.8,N
1526613135.4,286046994.9,N
1526613155.3,286046995.2,N
1526613175.1,286046994.0,Y
1526613176.0,286046994.0,P
1526613195.8,286046999.2,N
1526613215.7,286046996.7,N
1526613235.5,286046997.7,N
1526613255.3,286046998.6,N
1526613275.2,286046999.8,N
1526613295.0,286046998.3,N
1526613295.9,286046998.3,N
1526613315.8,286046999.3,N
1526613335.6,286047000.6,N
1526613355.4,286047001.1,N
1526613375.3,286046997.0,N
1526613395.1,286046999.1,N
1526613415.8,286046999.1,N
1526613435.7,286047001.1,N
1526613455.5,286046998.2,N
1526613475.4,286046998.6,N
1526613495.2,286046998.4,N
1526613515.0,286046996.7,N
1526613515.9,286046996.7,N
1526613535.8,286047000.7,N
1526613555.6,286046998.6,N
1526613575.5,286046999.0,N
1526613595.3,286046998.5,N
1526613615.1,286046997.4,N
1526613635.9,286046999.2,N
1526613655.7,286046998.8,N
1526613675.5,286046998.3,N
1526613695.4,286047000.4,N
1526613715.2,286046998.3,N
1526613735.1,286047000.7,N
1526613736.0,286047000.7,N
1526613755.8,286047001.1,N
1526613775.6,286046997.7,N
1526613795.5,286046998.3,N
1526613815.3,286046997.3,N
1526613835.1,286046997.1,N
1526613855.9,286046999.5,N
1526613875.7,286046993.3,Y
1526613895.6,286046995.3,P
1526613915.4,286046995.3,N
1526613935.2,286046997.0,N
1526613955.1,286046995.1,Y
1526613956.0,286046995.1,P
1526613975.8,286047000.0,N
1526613995.7,286047002.6,N
1526614015.5,286047002.5,N
1526614035.3,286047000.0,N
1526614055.2,286047000.3,N
1526614075.9,286047000.2,N
1526614095.7,286047002.8,N
1526614115.6,286047002.2,N
1526614135.4,286047002.0,N
1526614155.3,286047002.1,N
1526614175.1,286047001.3,N
1526614176.0,286047001.3,N
1526614195.8,286047002.7,N
1526614215.7,286047002.2,N
1526614235.5,286047002.6,N
1526614255.3,286047002.8,N
1526614275.2,286047001.3,N
1526614295.0,286047004.2,N
1526614295.9,286047004.2,N
1526614315.8,286047004.2,N
1526614335.6,286047001.4,N
1526614355.4,286047002.0,N
1526614375.3,286047002.8,N
1526614395.1,286047002.0,N
1526614415.9,286047004.1,N
1526614435.7,286047001.8,N
1526614455.5,286047004.3,N
1526614475.4,286047001.6,N
1526614495.2,286047005.6,N
1526614515.0,286047003.0,N
1526614516.0,286047003.0,N
1526614535.8,286047001.3,N
1526614555.6,286046999.8,N
1526614575.5,286047000.2,N
1526614595.3,286047000.3,N
1526614615.1,286047000.1,N
1526614635.9,286047000.6,N
1526614655.7,286047001.0,N
1526614675.6,286046996.8,N
1526614695.4,286046999.2,N
1526614715.2,286046999.2,N
1526614735.1,286046997.2,N
1526614736.0,286046997.2,N
1526614755.8,286046996.8,N
1526614775.6,286046995.3,N
1526614795.5,286046997.8,N
1526614815.3,286046995.5,N
1526614835.2,286046995.9,N
1526614855.9,286046996.0,N
1526614875.7,286046994.5,N
1526614895.6,286046993.7,N
1526614915.4,286046993.8,N
1526614935.2,286046994.6,N
1526614955.1,286046992.0,N
1526614956.0,286046992.0,N
1526614975.8,286046994.2,N
1526614995.7,286046994.3,N
1526615015.5,286046994.7,N
1526615035.3,286046994.2,N
1526615055.2,286046996.4,N
1526615075.0,286046993.3,N
1526615075.9,286046993.3,N
1526615095.8,286046993.9,N
1526615115.6,286046993.8,N
1526615135.4,286046994.4,N
1526615155.3,286046993.9,N
1526615175.1,286046994.4,N
1526615195.8,286046993.7,Y
1526615215.7,286047002.5,P
1526615235.5,286047001.0,N
1526615255.4,286046999.0,N
1526615275.2,286046999.2,N
1526615295.0,286046999.1,N
1526615296.0,286046999.1,N
1526615315.8,286046998.8,N
1526615335.6,286047000.8,N
1526615355.5,286047002.1,N
1526615375.3,286047003.8,N
1526615395.1,286047004.1,N
1526615415.9,286047003.5,N
1526615435.7,286047004.2,N
1526615455.6,286047003.5,N
1526615475.4,286047003.6,N
1526615495.2,286047005.6,N
1526615515.1,286047004.2,N
1526615516.0,286047004.2,N
1526615535.8,286047001.5,N
1526615555.6,286047001.5,N
1526615575.5,286047001.8,N
1526615595.3,286047002.7,N
1526615615.2,286047000.4,N
1526615635.9,286047002.5,N
1526615655.7,286047003.1,N
1526615675.6,286047004.3,N
1526615695.4,286047002.0,N
1526615715.2,286047001.5,N
1526615735.1,286047001.7,N
1526615736.0,286047001.7,N
1526615755.8,286047005.9,Y
1526615775.7,286047002.3,P
1526615795.5,286046999.9,N
1526615815.3,286046998.3,N
1526615835.2,286046998.1,N
1526615855.0,286046998.9,N
1526615855.9,286046998.9,N
1526615875.8,286047000.8,N
1526615895.6,286047000.7,N
1526615915.4,286047001.1,N
1526615935.3,286047000.2,N
1526615955.1,286046998.4,N
1526615975.8,286046998.7,N
1526615995.7,286047000.9,N
